Location: Igon
(43.1667°N, 0.2333°W)
Time: 21:44:55
(UTC+00:00)

Cosmos 372 Rocket - Pass Details

Date: 29 November 2020
Orbit: 737 x 769 km, 74.1° (Epoch: 20 January)

Event Time Altitude Azimuth Distance (km) Brightness Sun altitude
Rises 06:09:39 0° 202° (SSW) 3,157 7.2 -11.0°
Reaches altitude 10° 06:11:59 10° 203° (SSW) 2,237 6.4 -10.6°
Maximum altitude 06:17:03 79° 290° (WNW) 756 3.9 -9.8°
Drops below altitude 10° 06:22:10 10° 18° (NNE) 2,255 6.4 -8.9°
Sets 06:24:32 0° 20° (NNE) 3,184 7.2 -8.5°
